Time,TemperatureF,DewpointF,PressureIn,WindDirection,WindDirectionDegrees,WindSpeedMPH,WindSpeedGustMPH,Humidity,HourlyPrecipIn,Conditions,Clouds,dailyrainin,SoftwareType,DateUTC
2013-02-08 00:01:00,47.0,42.0,30.02,NNW,340,1.0,6.0,83,0.00,,,0.01,,2013-02-08 08:01:00,
2013-02-08 00:11:00,47.0,42.0,30.02,NNW,340,1.0,6.0,83,0.00,,,0.01,,2013-02-08 08:11:00,
2013-02-08 00:21:00,47.0,42.0,30.02,West,273,1.0,7.0,82,0.00,,,0.01,,2013-02-08 08:21:00,
2013-02-08 00:32:00,47.0,42.0,30.02,WSW,253,0.0,6.0,82,0.00,,,0.01,,2013-02-08 08:32:00,
2013-02-08 00:41:00,47.0,42.0,30.02,WSW,253,0.0,6.0,82,0.00,,,0.01,,2013-02-08 08:41:00,
2013-02-08 00:52:00,46.0,40.0,30.01,WNW,289,0.0,7.0,79,0.00,,,0.01,,2013-02-08 08:52:00,
2013-02-08 01:02:00,46.0,40.0,30.01,NNW,337,0.0,4.0,79,0.00,,,0.01,,2013-02-08 09:02:00,
2013-02-08 01:11:00,46.0,40.0,30.01,NNW,337,0.0,4.0,79,0.00,,,0.01,,2013-02-08 09:11:00,
2013-02-08 01:21:00,45.0,39.0,30.01,NE,44,1.0,4.0,78,0.00,,,0.01,,2013-02-08 09:21:00,
2013-02-08 01:31:00,45.0,39.0,30.02,NNE,18,0.0,14.0,78,0.00,,,0.01,,2013-02-08 09:31:00,
2013-02-08 01:42:00,45.0,39.0,30.02,NNE,18,0.0,14.0,78,0.00,,,0.01,,2013-02-08 09:42:00,
2013-02-08 01:52:00,45.0,38.0,30.01,SE,129,1.0,5.0,77,0.00,,,0.01,,2013-02-08 09:52:00,
2013-02-08 02:01:00,45.0,39.0,30.01,West,277,0.0,9.0,78,0.00,,,0.01,,2013-02-08 10:01:00,
2013-02-08 02:11:00,45.0,39.0,30.01,West,277,0.0,9.0,78,0.00,,,0.01,,2013-02-08 10:11:00,
2013-02-08 02:22:00,44.0,38.0,30.01,NW,309,0.0,3.0,79,0.00,,,0.01,,2013-02-08 10:22:00,
2013-02-08 02:31:00,44.0,38.0,30.00,West,260,0.0,4.0,79,0.00,,,0.01,,2013-02-08 10:31:00,
2013-02-08 02:41:00,44.0,38.0,30.00,West,260,0.0,4.0,79,0.00,,,0.01,,2013-02-08 10:41:00,
2013-02-08 02:52:00,44.0,38.0,30.00,WNW,290,0.0,4.0,80,0.00,,,0.01,,2013-02-08 10:52:00,
2013-02-08 03:01:00,44.0,38.0,29.99,WNW,289,0.0,9.0,80,0.00,,,0.01,,2013-02-08 11:01:00,
2013-02-08 03:11:00,44.0,38.0,29.99,WNW,289,0.0,9.0,80,0.00,,,0.01,,2013-02-08 11:11:00,
2013-02-08 03:21:00,44.0,38.0,29.99,SW,231,0.0,5.0,80,0.00,,,0.01,,2013-02-08 11:21:00,
2013-02-08 03:32:00,44.0,38.0,29.99,WNW,282,0.0,6.0,80,0.00,,,0.01,,2013-02-08 11:32:00,
2013-02-08 03:41:00,44.0,38.0,29.99,WNW,282,0.0,6.0,80,0.00,,,0.01,,2013-02-08 11:41:00,
2013-02-08 03:52:00,44.0,39.0,29.98,WSW,245,0.0,9.0,81,0.00,,,0.01,,2013-02-08 11:52:00,
2013-02-08 04:01:00,44.0,39.0,29.98,West,271,1.0,5.0,81,0.00,,,0.01,,2013-02-08 12:01:00,
2013-02-08 04:11:00,44.0,39.0,29.98,West,271,1.0,5.0,81,0.00,,,0.01,,2013-02-08 12:11:00,
2013-02-08 04:22:00,43.0,38.0,29.98,NW,313,0.0,6.0,81,0.00,,,0.01,,2013-02-08 12:22:00,
2013-02-08 04:32:00,43.0,38.0,29.98,WNW,294,0.0,5.0,81,0.00,,,0.01,,2013-02-08 12:32:00,
2013-02-08 04:42:00,43.0,38.0,29.98,WNW,294,0.0,5.0,81,0.00,,,0.01,,2013-02-08 12:42:00,
2013-02-08 04:52:00,43.0,38.0,29.98,West,280,0.0,4.0,81,0.00,,,0.01,,2013-02-08 12:52:00,
2013-02-08 05:01:00,43.0,38.0,29.98,West,277,0.0,5.0,82,0.00,,,0.01,,2013-02-08 13:01:00,
2013-02-08 05:11:00,43.0,38.0,29.98,West,277,0.0,5.0,82,0.00,,,0.01,,2013-02-08 13:11:00,
2013-02-08 05:21:00,42.0,37.0,29.98,WNW,294,0.0,5.0,82,0.00,,,0.01,,2013-02-08 13:21:00,
2013-02-08 05:32:00,42.0,37.0,29.98,West,279,0.0,3.0,82,0.00,,,0.01,,2013-02-08 13:32:00,
2013-02-08 05:42:00,42.0,37.0,29.98,West,279,0.0,3.0,82,0.00,,,0.01,,2013-02-08 13:42:00,
2013-02-08 05:52:00,42.0,37.0,29.98,NE,39,0.0,7.0,83,0.00,,,0.01,,2013-02-08 13:52:00,
2013-02-08 06:01:00,42.0,37.0,29.98,WSW,258,1.0,9.0,82,0.00,,,0.01,,2013-02-08 14:01:00,
2013-02-08 06:11:00,42.0,37.0,29.98,WSW,258,1.0,9.0,82,0.00,,,0.01,,2013-02-08 14:11:00,
2013-02-08 06:21:00,43.0,38.0,29.98,WNW,289,2.0,9.0,81,0.00,,,0.01,,2013-02-08 14:21:00,
2013-02-08 06:32:00,43.0,37.0,29.99,WSW,257,0.0,4.0,80,0.00,,,0.00,,2013-02-08 14:32:00,
2013-02-08 06:41:00,43.0,37.0,29.99,WSW,257,0.0,4.0,80,0.00,,,0.00,,2013-02-08 14:41:00,
2013-02-08 06:52:00,43.0,37.0,29.98,WNW,295,1.0,12.0,78,0.00,,,0.00,,2013-02-08 14:52:00,
2013-02-08 07:01:00,43.0,36.0,29.98,West,273,2.0,7.0,76,0.00,,,0.00,,2013-02-08 15:01:00,
2013-02-08 07:11:00,43.0,36.0,29.98,West,273,2.0,7.0,76,0.00,,,0.00,,2013-02-08 15:11:00,
2013-02-08 07:21:00,44.0,37.0,29.99,West,281,0.0,10.0,76,0.00,,,0.00,,2013-02-08 15:21:00,
2013-02-08 07:31:00,44.0,37.0,29.99,SW,219,1.0,4.0,77,0.00,,,0.00,,2013-02-08 15:31:00,
2013-02-08 07:41:00,44.0,37.0,29.99,SW,219,1.0,4.0,77,0.00,,,0.00,,2013-02-08 15:41:00,
2013-02-08 07:52:00,45.0,38.0,29.99,NNW,344,0.0,5.0,77,0.00,,,0.00,,2013-02-08 15:52:00,
2013-02-08 08:01:00,45.0,38.0,30.00,NW,314,2.0,6.0,76,0.00,,,0.00,,2013-02-08 16:01:00,
2013-02-08 08:11:00,45.0,38.0,30.00,NW,314,2.0,6.0,76,0.00,,,0.00,,2013-02-08 16:11:00,
2013-02-08 08:21:00,46.0,39.0,29.99,West,277,0.0,4.0,75,0.00,,,0.00,,2013-02-08 16:21:00,
2013-02-08 08:32:00,46.0,39.0,29.99,West,262,0.0,4.0,75,0.00,,,0.00,,2013-02-08 16:32:00,
2013-02-08 08:41:00,46.0,39.0,29.99,West,262,0.0,4.0,75,0.00,,,0.00,,2013-02-08 16:41:00,
2013-02-08 08:52:00,47.0,39.0,29.99,WNW,286,1.0,2.0,73,0.00,,,0.00,,2013-02-08 16:52:00,
2013-02-08 09:02:00,46.0,38.0,30.00,SSW,192,0.0,2.0,74,0.00,,,0.00,,2013-02-08 17:02:00,
2013-02-08 09:11:00,46.0,38.0,30.00,SSW,192,0.0,2.0,74,0.00,,,0.00,,2013-02-08 17:11:00,
2013-02-08 09:22:00,45.0,38.0,30.00,NW,322,0.0,2.0,76,0.00,,,0.00,,2013-02-08 17:22:00,
2013-02-08 09:32:00,46.0,39.0,29.99,WNW,291,1.0,5.0,75,0.00,,,0.00,,2013-02-08 17:32:00,
2013-02-08 09:42:00,46.0,39.0,29.99,WNW,291,1.0,5.0,75,0.00,,,0.00,,2013-02-08 17:42:00,
2013-02-08 09:52:00,47.0,38.0,30.00,West,273,0.0,10.0,70,0.00,,,0.00,,2013-02-08 17:52:00,
2013-02-08 10:01:00,47.0,38.0,30.00,SW,232,1.0,3.0,71,0.00,,,0.00,,2013-02-08 18:01:00,
2013-02-08 10:11:00,47.0,38.0,30.00,SW,232,1.0,3.0,71,0.00,,,0.00,,2013-02-08 18:11:00,
2013-02-08 10:23:00,48.0,37.0,29.99,NE,39,0.0,3.0,66,0.00,,,0.00,,2013-02-08 18:23:00,
2013-02-08 10:32:00,48.0,37.0,29.99,ENE,57,1.0,5.0,65,0.00,,,0.00,,2013-02-08 18:32:00,
2013-02-08 10:42:00,48.0,37.0,29.99,ENE,57,1.0,5.0,65,0.00,,,0.00,,2013-02-08 18:42:00,
2013-02-08 10:52:00,48.0,37.0,29.99,WNW,293,1.0,13.0,65,0.00,,,0.00,,2013-02-08 18:52:00,
2013-02-08 11:01:00,48.0,37.0,29.99,SSW,192,0.0,4.0,65,0.00,,,0.00,,2013-02-08 19:01:00,
2013-02-08 11:11:00,48.0,37.0,29.99,SSW,192,0.0,4.0,65,0.00,,,0.00,,2013-02-08 19:11:00,
2013-02-08 11:21:00,49.0,36.0,29.98,NNE,13,2.0,7.0,61,0.00,,,0.00,,2013-02-08 19:21:00,
2013-02-08 11:32:00,49.0,37.0,29.98,WNW,286,0.0,7.0,62,0.00,,,0.00,,2013-02-08 19:32:00,
2013-02-08 11:41:00,49.0,37.0,29.98,WNW,286,0.0,7.0,62,0.00,,,0.00,,2013-02-08 19:41:00,
2013-02-08 11:52:00,48.0,37.0,29.98,North,355,1.0,6.0,65,0.00,,,0.00,,2013-02-08 19:52:00,
2013-02-08 12:01:00,48.0,37.0,29.97,NE,41,1.0,9.0,66,0.00,,,0.00,,2013-02-08 20:01:00,
2013-02-08 12:11:00,48.0,37.0,29.97,NE,41,1.0,9.0,66,0.00,,,0.00,,2013-02-08 20:11:00,
2013-02-08 12:21:00,49.0,36.0,29.96,SSW,211,2.0,7.0,61,0.00,,,0.00,,2013-02-08 20:21:00,
2013-02-08 12:31:00,49.0,37.0,29.96,NNW,331,2.0,6.0,62,0.00,,,0.00,,2013-02-08 20:31:00,
2013-02-08 12:41:00,49.0,37.0,29.96,NNW,331,2.0,6.0,62,0.00,,,0.00,,2013-02-08 20:41:00,
2013-02-08 12:52:00,49.0,37.0,29.94,South,175,1.0,9.0,62,0.00,,,0.00,,2013-02-08 20:52:00,
2013-02-08 13:01:00,49.0,37.0,29.94,North,5,2.0,10.0,64,0.00,,,0.00,,2013-02-08 21:01:00,
2013-02-08 13:11:00,49.0,37.0,29.94,North,5,2.0,10.0,64,0.00,,,0.00,,2013-02-08 21:11:00,
2013-02-08 13:21:00,47.0,36.0,29.94,West,280,1.0,11.0,66,0.00,,,0.00,,2013-02-08 21:21:00,
2013-02-08 13:32:00,48.0,37.0,29.93,North,5,0.0,10.0,66,0.00,,,0.00,,2013-02-08 21:32:00,
2013-02-08 13:41:00,48.0,37.0,29.93,North,5,0.0,10.0,66,0.00,,,0.00,,2013-02-08 21:41:00,
2013-02-08 13:52:00,50.0,37.0,29.92,West,262,1.0,11.0,60,0.00,,,0.00,,2013-02-08 21:52:00,
2013-02-08 14:01:00,50.0,36.0,29.92,NW,304,2.0,7.0,58,0.00,,,0.00,,2013-02-08 22:01:00,
2013-02-08 14:11:00,50.0,36.0,29.92,NW,304,2.0,7.0,58,0.00,,,0.00,,2013-02-08 22:11:00,
2013-02-08 14:21:00,50.0,36.0,29.91,West,276,2.0,7.0,59,0.00,,,0.00,,2013-02-08 22:21:00,
2013-02-08 14:31:00,50.0,36.0,29.91,WNW,290,2.0,7.0,59,0.00,,,0.00,,2013-02-08 22:31:00,
2013-02-08 14:41:00,50.0,36.0,29.91,WNW,290,2.0,7.0,59,0.00,,,0.00,,2013-02-08 22:41:00,
2013-02-08 14:52:00,49.0,36.0,29.91,NNW,327,1.0,6.0,61,0.00,,,0.00,,2013-02-08 22:52:00,
2013-02-08 15:01:00,49.0,36.0,29.91,West,270,0.0,5.0,60,0.00,,,0.00,,2013-02-08 23:01:00,
2013-02-08 15:11:00,49.0,36.0,29.91,West,270,0.0,5.0,60,0.00,,,0.00,,2013-02-08 23:11:00,
2013-02-08 15:21:00,48.0,37.0,29.91,South,189,0.0,6.0,66,0.00,,,0.00,,2013-02-08 23:21:00,
2013-02-08 15:31:00,47.0,38.0,29.91,WNW,303,1.0,9.0,70,0.00,,,0.00,,2013-02-08 23:31:00,
2013-02-08 15:41:00,47.0,38.0,29.91,WNW,303,1.0,9.0,70,0.00,,,0.00,,2013-02-08 23:41:00,
2013-02-08 15:52:00,46.0,39.0,29.90,NNW,340,0.0,5.0,75,0.00,,,0.00,,2013-02-08 23:52:00,
2013-02-08 16:01:00,45.0,39.0,29.90,WNW,290,0.0,3.0,78,0.00,,,0.00,,2013-02-09 00:01:00,
2013-02-08 16:11:00,45.0,39.0,29.90,WNW,290,0.0,3.0,78,0.00,,,0.00,,2013-02-09 00:11:00,
2013-02-08 16:21:00,45.0,38.0,29.90,NW,323,1.0,9.0,75,0.00,,,0.00,,2013-02-09 00:21:00,
2013-02-08 16:31:00,45.0,38.0,29.90,NW,304,1.0,5.0,76,0.00,,,0.00,,2013-02-09 00:31:00,
2013-02-08 16:41:00,45.0,38.0,29.90,NW,304,1.0,5.0,76,0.00,,,0.00,,2013-02-09 00:41:00,
2013-02-08 16:52:00,45.0,38.0,29.90,WNW,301,0.0,3.0,77,0.00,,,0.00,,2013-02-09 00:52:00,
2013-02-08 17:01:00,45.0,39.0,29.90,NW,311,0.0,3.0,80,0.00,,,0.00,,2013-02-09 01:01:00,
2013-02-08 17:11:00,45.0,39.0,29.90,NW,311,0.0,3.0,80,0.00,,,0.00,,2013-02-09 01:11:00,
2013-02-08 17:21:00,44.0,39.0,29.91,NNE,13,0.0,2.0,82,0.01,,,0.01,,2013-02-09 01:21:00,
2013-02-08 17:31:00,44.0,39.0,29.91,West,274,0.0,4.0,82,0.01,,,0.01,,2013-02-09 01:31:00,
2013-02-08 17:41:00,44.0,39.0,29.91,West,274,0.0,4.0,82,0.01,,,0.01,,2013-02-09 01:41:00,
2013-02-08 17:52:00,44.0,39.0,29.90,WNW,302,0.0,3.0,83,0.01,,,0.01,,2013-02-09 01:52:00,
2013-02-08 18:01:00,44.0,39.0,29.91,West,269,1.0,2.0,84,0.01,,,0.01,,2013-02-09 02:01:00,
2013-02-08 18:11:00,44.0,39.0,29.91,West,269,1.0,2.0,84,0.01,,,0.01,,2013-02-09 02:11:00,
2013-02-08 18:21:00,43.0,39.0,29.91,NNW,345,0.0,2.0,85,0.00,,,0.01,,2013-02-09 02:21:00,
2013-02-08 18:31:00,43.0,39.0,29.91,NNW,345,0.0,0.0,86,0.00,,,0.01,,2013-02-09 02:31:00,
2013-02-08 18:41:00,43.0,39.0,29.91,NNW,345,0.0,0.0,86,0.00,,,0.01,,2013-02-09 02:41:00,
2013-02-08 18:52:00,43.0,39.0,29.92,ESE,120,0.0,3.0,86,0.00,,,0.01,,2013-02-09 02:52:00,
2013-02-08 19:01:00,43.0,39.0,29.92,NE,45,0.0,3.0,85,0.00,,,0.01,,2013-02-09 03:01:00,
2013-02-08 19:11:00,43.0,39.0,29.92,NE,45,0.0,3.0,85,0.00,,,0.01,,2013-02-09 03:11:00,
2013-02-08 19:21:00,43.0,38.0,29.92,SE,129,2.0,4.0,83,0.00,,,0.01,,2013-02-09 03:21:00,
2013-02-08 19:31:00,42.0,37.0,29.93,SE,130,2.0,5.0,82,0.00,,,0.01,,2013-02-09 03:31:00,
2013-02-08 19:41:00,42.0,37.0,29.93,SE,130,2.0,5.0,82,0.00,,,0.01,,2013-02-09 03:41:00,
2013-02-08 19:52:00,41.0,37.0,29.92,ESE,120,0.0,2.0,84,0.00,,,0.01,,2013-02-09 03:52:00,
2013-02-08 20:02:00,40.0,36.0,29.92,ESE,120,0.0,0.0,84,0.00,,,0.01,,2013-02-09 04:02:00,
2013-02-08 20:11:00,40.0,36.0,29.92,ESE,120,0.0,0.0,84,0.00,,,0.01,,2013-02-09 04:11:00,
2013-02-08 20:22:00,39.0,35.0,29.93,ESE,120,0.0,0.0,85,0.00,,,0.01,,2013-02-09 04:22:00,
2013-02-08 20:31:00,39.0,35.0,29.93,SSW,213,0.0,1.0,86,0.00,,,0.01,,2013-02-09 04:31:00,
2013-02-08 20:42:00,39.0,35.0,29.93,SSW,213,0.0,1.0,86,0.00,,,0.01,,2013-02-09 04:42:00,
2013-02-08 20:52:00,38.0,34.0,29.93,SSW,213,0.0,0.0,86,0.00,,,0.01,,2013-02-09 04:52:00,
2013-02-08 21:02:00,37.0,33.0,29.93,SSW,213,0.0,0.0,86,0.00,,,0.01,,2013-02-09 05:02:00,
2013-02-08 21:11:00,37.0,33.0,29.93,SSW,213,0.0,0.0,86,0.00,,,0.01,,2013-02-09 05:11:00,
2013-02-08 21:22:00,36.0,33.0,29.94,SSW,213,0.0,0.0,87,0.00,,,0.01,,2013-02-09 05:22:00,
2013-02-08 21:31:00,36.0,33.0,29.94,SSW,213,0.0,0.0,87,0.00,,,0.01,,2013-02-09 05:31:00,
2013-02-08 21:41:00,36.0,33.0,29.94,SSW,213,0.0,0.0,87,0.00,,,0.01,,2013-02-09 05:41:00,
2013-02-08 21:52:00,35.0,32.0,29.95,SSW,213,0.0,0.0,88,0.00,,,0.01,,2013-02-09 05:52:00,
2013-02-08 22:01:00,35.0,32.0,29.95,SSW,213,0.0,0.0,89,0.00,,,0.01,,2013-02-09 06:01:00,
2013-02-08 22:11:00,35.0,32.0,29.95,SSW,213,0.0,0.0,89,0.00,,,0.01,,2013-02-09 06:11:00,
2013-02-08 22:21:00,34.0,31.0,29.96,SSW,213,0.0,1.0,90,0.00,,,0.01,,2013-02-09 06:21:00,
2013-02-08 22:31:00,35.0,33.0,29.96,SSW,213,0.0,1.0,91,0.00,,,0.01,,2013-02-09 06:31:00,
2013-02-08 22:41:00,35.0,33.0,29.96,SSW,213,0.0,1.0,91,0.00,,,0.01,,2013-02-09 06:41:00,
2013-02-08 22:52:00,36.0,34.0,29.96,SSW,213,0.0,0.0,92,0.00,,,0.01,,2013-02-09 06:52:00,
2013-02-08 23:01:00,36.0,34.0,29.96,SSW,213,0.0,0.0,91,0.00,,,0.01,,2013-02-09 07:01:00,
2013-02-08 23:11:00,36.0,34.0,29.96,SSW,213,0.0,0.0,91,0.00,,,0.01,,2013-02-09 07:11:00,
2013-02-08 23:21:00,36.0,34.0,29.96,SSW,213,0.0,0.0,91,0.00,,,0.01,,2013-02-09 07:21:00,
2013-02-08 23:31:00,36.0,34.0,29.96,SSW,213,0.0,0.0,91,0.00,,,0.01,,2013-02-09 07:31:00,
2013-02-08 23:42:00,36.0,34.0,29.96,SSW,213,0.0,0.0,91,0.00,,,0.01,,2013-02-09 07:42:00,
2013-02-08 23:52:00,36.0,34.0,29.97,SSW,213,0.0,0.0,91,0.00,,,0.01,,2013-02-09 07:52:00,